Change the Weather History Date:

Sunday, November 14, 2010

  Actual Average Record
Temperature  
Mean Temperature 78 °F -  
Max Temperature 84 °F 86 °F 93 °F (2008)
Min Temperature 73 °F 78 °F 68 °F (1996)
Cooling Degree Days 14    
Growing Degree Days 28 (Base 50)    
Moisture  
Dew Point 74 °F    
Average Humidity 83    
Maximum Humidity 100    
Minimum Humidity 56    
Precipitation  
Precipitation 0.31 in - - ()
Sea Level Pressure  
Sea Level Pressure 29.87 in    
Wind  
Wind Speed 6 mph ()    
Max Wind Speed 67 mph    
Max Gust Speed -    
Visibility 7.3 miles    
Events Rain    
Averages and records for this station are not official NWS values.
T = Trace of Precipitation, MM = Missing Value Source: Averaged Metar Reports

Daily Weather History Graph

Daily Weather History Graph

Search for Another Location

Airport or City:

Trip Planner

Search our weather history database for the weather conditions in past years. The results will help you decide how hot, cold, wet, or windy it might be!

Date:

Astronomy

Nov. 14, 2010 Rise Set
Actual Time 6:30 AM AST 6:04 PM AST
Civil Twilight 6:07 AM AST 6:27 PM AST
Nautical Twilight 5:42 AM AST 6:52 PM AST
Astronomical Twilight 5:16 AM AST 7:18 PM AST
Moon 1:19 PM AST (11/14) 12:44 AM AST (11/14)
Length of Visible Light 12h 19m
Length of Day
11h 34m
First Quarter, 59% of the Moon is Illuminated
Nov 14
First Quarter
Nov 21
Full
Nov 28
Last Quarter
Dec 5
New
Dec 13
First Quarter

Hourly Weather History & Observations

Time (AST) Temp. Heat Index Dew Point Humidity Pressure Visibility Wind Dir Wind Speed Gust Speed Precip Events Conditions
12:00 AM 80.6 °F 86.2 °F 75.2 °F 84% 29.86 in - ESE 2.3 mph - N/A   Unknown
2:00 AM 80.6 °F 87.1 °F 77.0 °F 89% 29.83 in - ESE 2.3 mph - N/A   Unknown
7:00 AM 73.4 °F - 73.4 °F 100% 29.92 in - ESE 2.3 mph - N/A Rain Rain
8:00 AM - - - %  in 0 mi SE 66.7 mph - -   Scattered Clouds
8:00 AM 73.4 °F - 73.4 °F 100% 29.92 in 5.0 mi ESE 2.3 mph - N/A Rain Rain
9:00 AM 73.4 °F - 73.4 °F 100% 29.92 in 5.0 mi ESE 2.3 mph - N/A Rain Rain
10:00 AM 75.2 °F - 75.2 °F 100% 29.92 in 5.0 mi ESE 2.3 mph - N/A Rain Rain
11:00 AM 77 °F - 74 °F 87% 29.92 in 9 mi East 9.2 mph - - Rain Light Rain
11:00 AM 77.0 °F - 75.2 °F 94% 29.92 in - North - - N/A Rain Rain
12:00 PM 80.6 °F 84.6 °F 71.6 °F 74% 29.89 in - North - - N/A Rain Rain
1:00 PM 82.4 °F 87.2 °F 71.6 °F 70% 29.86 in 6.2 mi ESE 2.3 mph - N/A   Scattered Clouds
2:00 PM 84 °F - 71 °F 56%  in 6 mi ESE 2.3 mph - -   Clear
2:00 PM 84.2 °F 88.4 °F 69.8 °F 62% 29.83 in - North - - N/A   Unknown
3:00 PM 84.2 °F 89.6 °F 71.6 °F 66% 29.83 in 6.2 mi South 4.6 mph - N/A   Scattered Clouds
4:00 PM 84.2 °F 89.6 °F 71.6 °F 66% 29.80 in 6.2 mi SSE 2.3 mph - N/A   Scattered Clouds
5:00 PM 82 °F - 73 °F 68% 29.84 in 16 mi SSE 2.3 mph - -   Partly Cloudy
5:00 PM 82.4 °F 88.2 °F 73.4 °F 74% 29.83 in 6.2 mi SSE 3.5 mph - N/A   Scattered Clouds
6:00 PM 80.6 °F 85.4 °F 73.4 °F 79% 29.83 in 6.2 mi East 3.5 mph - N/A   Scattered Clouds
7:00 PM 78.8 °F - 75.2 °F 89% 29.83 in - North - - N/A   Unknown
8:00 PM 79 °F - 75 °F 85% 29.88 in 12 mi NE 3.5 mph - -   Partly Cloudy
8:00 PM 78.8 °F - 75.2 °F 89% 29.86 in 6.2 mi NE 2.3 mph - N/A   Scattered Clouds
9:00 PM 78.8 °F - 77.0 °F 94% 29.89 in 6.2 mi ESE 2.3 mph - N/A   Scattered Clouds
11:00 PM 80 °F - 77 °F 87%  in 16 mi ESE 2.3 mph - -  
11:00 PM 80.6 °F 87.1 °F 77.0 °F 89% 29.89 in - North - - N/A   Scattered Clouds